RH
99 100 98 99 93 59 28 22 17 13 13 12 12 12 11 10 10 9 9 8 7 7 7 6 6 5 6 6 4 7 10 9 14 30 38 21 7 9 14 16 14 14 18 27 35 40 44 40 37 37 33 32 33 32 30 30 28 36 50 55 56 46 39 38 26 15 15 14 13 14 15 20 26 25 24 27 30 32 34 34 36 38 41 44 47 50 51 53
98 99 101 100 86 49 24 21 16 14 13 12 12 11 11 10 10 9 9 8 8 7 6 7 6 6 6 4 5 10 16 20 31 42 29 9 7 9 10 14 15 14 18 29 37 38 40 39 36 35 33 34 32 28 30 30 28 37 49 53 52 41 31 28 21 15 13 13 13 14 15 19 23 24 23 29 33 31 34 35 36 43 45 45 47 48 51 51
97 99 100 83 60 37 26 22 16 15 13 12 12 10 10 10 9 9 8 7 8 7 6 7 6 7 5 5 8 11 31 49 47 37 20 9 12 9 9 16 15 12 15 22 27 31 34 34 33 34 35 34 30 27 29 30 30 33 41 50 45 31 25 22 18 15 13 13 12 14 14 15 17 18 20 27 31 30 38 42 42 49 49 48 47 46 49 49
96 101 91 56 35 29 24 19 16 16 13 13 11 10 10 8 9 8 8 8 7 7 6 6 7 7 4 6 7 14 47 58 36 22 16 11 9 9 13 15 13 10 11 14 18 24 28 28 29 32 33 32 27 24 26 29 30 30 35 41 33 24 24 20 16 15 14 13 12 13 14 14 14 15 18 23 29 31 40 45 45 49 48 46 47 46 48 49
96 102 82 44 30 24 19 17 16 15 13 13 11 10 10 8 9 7 7 7 6 7 6 7 8 6 5 7 7 26 50 37 17 14 12 10 9 11 14 10 10 9 9 16 18 19 22 24 26 29 29 29 27 24 24 25 26 29 31 30 25 24 24 18 15 14 14 14 13 13 13 14 13 14 17 21 28 29 36 43 42 44 44 44 46 47 48 49
99 94 65 39 30 22 19 17 14 13 12 11 11 10 9 9 8 7 7 6 7 8 7 9 8 6 6 5 15 40 40 15 10 14 10 12 11 11 11 7 9 9 11 20 21 18 19 21 25 29 29 28 27 24 22 22 23 28 28 25 24 23 21 17 14 13 14 14 14 13 12 12 12 13 15 18 21 24 33 40 40 42 42 42 44 47 49 50
91 67 42 33 29 23 20 17 14 13 12 11 10 10 9 9 7 7 7 5 8 8 9 11 7 7 6 11 36 54 41 19 10 9 11 12 9 9 8 9 9 10 18 24 24 21 19 21 23 27 28 27 25 20 18 19 22 26 25 23 22 20 18 16 14 11 11 14 14 13 12 12 13 14 15 15 17 27 35 37 39 40 40 41 43 46 49 51
78 48 33 31 25 22 19 15 15 13 12 11 10 10 9 8 7 7 6 6 9 9 12 11 7 11 11 22 41 41 33 25 10 6 12 10 9 10 8 11 9 13 25 27 23 22 21 22 22 22 25 24 21 18 15 16 21 25 23 21 20 18 17 15 14 11 9 13 14 13 14 12 12 14 15 15 22 34 37 36 39 40 40 42 44 46 49 51
83 57 39 31 24 20 17 15 15 13 12 10 9 9 9 8 7 6 6 7 9 9 10 10 11 18 29 46 45 25 17 13 5 9 13 10 10 10 9 12 10 15 27 26 22 21 22 24 21 20 21 19 17 17 15 14 17 19 18 18 19 17 15 14 14 12 11 13 13 14 15 12 12 13 14 17 24 33 35 36 38 39 41 43 44 45 49 50
94 75 48 35 29 21 17 16 14 12 11 9 8 8 7 7 7 6 7 9 10 9 9 11 19 28 45 61 49 26 13 6 8 12 12 11 11 10 12 15 14 19 25 24 22 21 22 24 19 16 17 16 15 16 15 13 12 11 11 15 17 15 14 15 15 13 12 13 13 14 14 13 12 13 16 18 24 32 35 36 36 39 43 43 43 45 48 47
98 85 57 41 32 22 20 18 15 13 11 9 8 7 6 6 6 6 9 11 9 8 7 14 30 44 57 60 45 25 9 6 13 13 12 12 12 13 13 16 18 20 22 20 19 20 22 22 17 14 15 14 14 14 14 12 11 9 10 13 14 14 15 16 14 13 13 13 14 13 12 12 12 12 15 17 23 32 36 36 35 38 42 43 42 45 48 46
100 83 56 44 35 26 23 19 17 15 12 11 8 7 6 5 5 6 11 12 10 8 9 24 45 58 66 62 46 23 5 6 10 9 13 15 16 17 14 15 16 17 17 15 15 17 19 19 17 15 13 12 13 14 13 11 11 10 10 10 11 11 14 14 13 14 13 14 13 13 16 16 12 11 12 15 20 29 35 37 37 37 40 41 41 44 48 45
97 80 55 43 35 28 24 20 18 15 13 12 8 8 5 5 6 7 13 13 10 8 11 34 57 69 70 56 33 14 4 7 7 6 10 13 15 16 14 14 14 14 14 12 13 13 15 16 15 15 12 11 13 12 10 9 10 11 9 10 10 10 13 13 12 13 12 14 13 14 26 26 14 10 12 13 18 25 31 34 36 36 38 39 39 44 45 43
94 83 63 46 33 29 25 19 17 14 13 10 8 8 5 6 7 8 16 16 14 16 25 46 65 77 76 49 20 8 8 8 8 9 9 8 10 11 12 12 12 14 13 12 11 11 13 13 12 12 10 10 10 9 8 9 10 10 10 10 11 12 13 11 11 14 13 14 13 15 29 30 16 12 13 12 17 23 28 32 33 33 36 37 39 44 44 42
88 78 64 49 37 31 26 19 16 13 11 10 8 7 5 7 9 14 21 18 18 24 38 58 69 76 71 48 23 10 11 16 15 12 9 8 9 9 11 11 11 12 12 13 11 11 11 10 11 10 8 7 7 8 9 10 10 9 12 13 12 13 13 10 11 14 13 14 13 16 28 30 20 16 13 12 16 22 26 30 30 30 33 35 39 43 42 41
85 69 52 46 40 35 30 22 16 11 10 9 7 6 6 9 13 21 24 23 31 37 50 67 73 73 60 40 25 14 16 24 20 13 10 10 8 8 10 10 9 10 10 11 10 10 10 10 11 8 7 7 7 9 11 12 12 10 12 15 13 12 12 11 12 12 11 14 14 16 26 30 25 20 15 12 15 20 24 27 28 29 30 33 38 41 39 40
79 65 50 43 39 36 33 24 16 12 11 8 8 8 7 13 22 29 27 31 47 51 52 54 56 62 50 30 23 17 15 17 15 12 10 9 9 8 8 9 9 9 9 9 9 9 10 11 12 10 8 7 8 9 13 16 16 13 12 13 12 11 12 12 13 11 10 14 15 16 23 28 25 21 16 13 13 17 21 24 26 27 29 32 36 39 39 39
71 63 51 42 38 36 33 24 16 12 11 9 10 12 14 23 34 39 37 43 58 61 54 47 46 49 39 30 29 21 12 11 11 10 9 7 8 8 8 9 9 8 9 9 9 9 10 11 12 13 11 9 9 9 14 16 14 14 13 13 12 11 11 11 12 11 10 14 16 16 20 23 23 20 16 13 12 16 19 21 23 25 28 31 34 38 39 39
68 60 51 41 36 35 31 23 16 13 12 12 12 16 24 37 47 48 48 55 64 61 52 50 49 34 20 21 24 17 13 11 9 9 8 8 8 8 8 9 7 8 10 11 11 10 11 13 14 16 15 11 10 9 11 12 10 12 11 11 12 11 11 10 10 10 10 14 16 17 19 19 20 19 17 14 12 15 18 19 20 23 26 28 32 36 38 39
64 59 53 41 34 33 30 24 17 12 13 18 22 28 31 33 37 40 41 46 50 44 36 37 39 26 15 15 15 14 14 11 9 9 9 8 8 8 8 8 8 9 11 12 13 11 12 16 18 17 15 12 10 8 8 9 9 10 10 10 10 11 11 9 9 8 9 13 16 17 18 18 20 20 17 15 14 14 18 20 20 22 26 27 29 33 36 39
63 64 56 43 37 32 28 24 16 13 19 28 38 45 35 20 19 22 21 23 24 23 22 22 24 24 21 19 17 17 16 12 9 9 9 8 7 9 9 9 12 14 13 12 12 11 13 17 17 14 13 11 9 9 8 8 9 9 10 11 10 11 10 8 8 9 8 12 17 17 18 20 20 20 18 16 16 15 16 20 20 22 25 26 27 30 34 36
62 65 55 45 40 30 26 23 15 17 25 33 43 46 33 18 15 14 14 16 14 11 13 12 11 13 14 15 17 16 17 15 11 9 9 9 8 9 10 9 13 15 13 12 13 15 16 17 14 11 10 10 9 8 8 8 9 9 10 11 12 12 10 9 9 9 9 12 18 18 19 22 20 19 19 16 16 16 15 18 20 21 25 27 26 27 32 35
57 58 54 51 41 30 26 20 16 24 29 30 35 31 19 14 12 11 14 17 16 11 10 11 10 9 8 9 10 10 14 15 13 11 8 8 9 8 9 9 11 13 13 14 15 16 17 15 11 9 9 9 8 8 8 8 8 9 10 12 13 11 10 12 10 10 11 12 16 18 19 23 22 20 21 18 16 16 15 15 18 20 23 25 24 24 29 33
51 52 56 55 46 35 23 17 22 25 24 25 25 20 14 14 12 12 16 16 17 14 10 9 9 9 8 6 6 7 10 11 11 11 8 8 8 7 8 9 9 12 13 13 14 14 14 11 8 9 8 8 8 7 7 8 9 9 10 11 12 10 10 11 10 10 11 11 13 18 23 26 25 23 22 20 19 17 16 15 17 20 21 23 23 23 26 30
51 53 56 55 55 43 21 22 32 26 23 25 21 19 18 16 14 14 17 21 22 16 10 9 8 8 7 5 5 6 7 9 9 9 8 7 8 8 8 7 9 12 12 11 13 13 12 9 7 8 8 8 8 8 7 8 10 10 10 10 10 9 9 10 9 10 15 17 14 16 28 33 29 26 24 22 22 21 19 18 19 21 22 22 24 24 25 27
53 54 56 56 57 51 33 27 31 34 36 29 20 21 22 19 19 16 19 28 29 18 12 10 8 7 6 5 5 5 7 8 7 7 7 8 8 8 8 7 9 10 10 10 11 13 11 8 7 8 8 8 8 8 7 7 9 10 10 9 9 9 10 10 8 12 19 22 15 14 29 39 33 27 26 23 24 24 24 23 22 24 25 22 23 25 24 25
56 54 56 56 54 62 65 49 42 50 43 27 22 25 24 23 20 16 24 36 32 18 12 9 8 6 5 5 4 5 8 7 6 6 6 8 8 7 8 8 9 10 9 9 12 12 10 9 8 7 7 7 8 8 6 6 7 9 8 7 9 9 9 10 8 11 16 18 17 13 23 38 37 30 26 24 26 26 26 26 24 25 26 22 22 25 24 24
56 53 54 55 51 57 71 70 67 63 38 21 25 26 25 25 20 17 30 42 28 11 9 8 7 6 4 5 4 5 7 5 6 7 5 6 7 7 8 8 9 10 8 10 14 12 9 10 9 7 7 7 7 7 5 5 6 6 6 6 8 8 9 10 9 11 11 15 23 19 18 31 38 33 26 25 28 28 27 26 26 27 26 23 22 24 25 25
55 56 52 53 50 41 50 67 69 51 25 19 25 25 24 23 18 19 35 43 23 6 9 8 8 8 4 5 5 4 5 4 6 6 4 5 5 6 8 8 8 9 8 9 12 10 7 9 8 7 7 6 6 5 4 5 5 5 5 5 7 8 8 9 9 12 12 16 25 23 18 27 37 35 29 28 29 29 29 27 27 29 28 25 23 22 24 25
55 57 49 53 56 49 57 63 44 26 19 22 27 27 24 21 21 29 40 38 17 7 10 9 10 9 5 6 5 5 5 5 5 5 5 5 5 5 6 6 7 8 9 9 9 9 7 7 8 7 7 5 5 5 4 4 4 4 5 5 7 8 9 11 12 13 15 21 25 22 17 22 33 35 30 28 27 26 30 30 29 29 28 27 25 22 23 25
56 54 50 55 56 63 79 62 24 17 22 24 31 31 24 21 24 33 37 24 11 10 11 11 10 7 6 7 6 5 5 5 5 5 6 6 5 6 6 7 9 9 10 10 9 9 7 8 8 7 6 5 5 5 4 4 3 4 5 6 8 10 12 14 15 17 18 22 22 19 14 17 30 35 28 25 24 22 26 29 28 27 26 26 25 22 22 24
54 52 47 43 42 60 75 47 13 15 23 29 40 38 29 26 26 29 27 14 11 13 11 12 11 7 7 7 6 6 5 6 6 6 6 7 6 6 6 9 10 11 13 12 11 10 9 9 8 7 7 6 6 5 5 5 4 4 5 7 11 14 17 18 19 21 22 21 17 13 13 14 24 30 25 22 23 20 21 24 24 24 23 24 25 24 22 24
52 50 39 31 41 57 55 35 18 21 32 40 44 37 31 34 31 22 17 14 13 11 8 11 10 8 9 8 7 7 6 8 8 6 6 6 7 7 6 7 8 11 14 12 12 12 12 10 8 8 8 6 7 7 7 6 5 5 5 8 13 16 20 23 22 21 22 22 16 10 13 15 18 23 22 20 20 18 17 18 20 21 21 22 24 24 22 22
49 46 36 32 43 44 36 36 34 35 45 46 42 39 36 39 33 18 14 14 12 9 9 10 9 9 10 9 9 8 8 10 7 7 8 7 8 8 6 7 7 9 11 12 12 12 15 16 11 9 8 7 7 6 7 6 5 5 4 5 11 14 18 21 22 20 21 23 18 12 15 18 19 22 21 17 17 17 17 16 17 20 20 19 22 23 22 21
48 42 42 46 47 36 31 37 35 40 49 42 43 49 42 34 26 17 15 13 10 10 10 9 9 10 10 9 10 8 9 11 7 7 8 9 10 9 8 8 8 8 10 13 13 11 14 15 10 8 7 6 7 6 6 6 5 5 4 5 8 10 13 17 20 18 17 21 19 14 16 18 19 23 19 14 16 16 17 17 16 20 21 19 20 23 23 21
54 46 49 57 49 35 36 37 33 41 45 39 51 59 44 29 20 15 15 11 10 11 10 10 9 10 11 10 10 10 9 10 9 8 9 11 11 9 9 9 8 9 9 11 12 10 13 13 8 8 8 6 7 7 6 7 7 6 5 5 6 5 8 14 17 15 15 21 20 15 16 17 15 18 18 16 16 15 16 17 16 19 22 21 22 23 22 22
70 62 62 62 44 28 33 36 35 41 40 42 60 60 40 25 17 13 13 11 11 11 13 15 12 10 12 10 9 10 9 10 10 9 9 11 12 10 10 9 8 9 8 9 11 9 11 12 8 7 8 7 6 6 6 6 6 6 6 5 5 6 7 11 15 17 19 23 19 14 16 19 19 20 19 17 17 16 16 16 14 17 22 23 23 23 22 23
84 76 69 55 34 25 29 31 33 38 40 48 62 58 41 31 23 17 15 15 16 16 18 20 15 11 10 10 10 8 9 11 10 9 10 11 11 11 10 9 9 8 7 8 10 9 9 12 10 7 8 8 5 6 7 5 4 5 5 5 6 10 10 11 15 17 21 22 18 16 16 19 23 24 21 18 18 18 17 17 15 15 20 24 23 24 23 24
78 68 55 34 23 26 28 27 28 35 45 56 62 55 41 33 27 22 19 19 18 18 20 18 14 13 11 10 10 7 8 11 10 10 11 10 11 10 9 10 9 8 8 7 9 9 8 12 12 7 6 7 7 8 9 7 5 4 5 5 6 9 10 11 12 14 19 21 20 21 19 18 22 23 21 20 18 17 16 18 17 14 17 21 22 24 25 25
63 59 49 26 23 30 28 27 30 38 49 55 53 46 38 32 27 23 20 19 18 18 18 17 14 13 12 11 10 8 8 8 9 11 11 10 10 9 8 9 8 8 7 7 8 9 8 12 14 10 7 8 9 9 8 8 6 5 6 7 6 7 8 9 9 9 14 20 23 24 21 21 22 18 16 19 18 15 16 17 18 16 16 17 19 23 25 26
59 65 52 26 28 34 30 32 36 40 46 44 40 37 33 30 26 22 20 18 18 18 17 17 17 15 14 13 11 10 9 8 8 9 9 9 9 9 8 7 8 8 7 8 8 8 8 11 14 12 9 9 9 8 7 6 7 6 6 7 7 7 8 10 12 11 9 13 18 20 21 24 22 14 13 19 19 14 15 18 18 16 15 16 18 22 24 25
64 67 49 31 37 38 35 39 38 38 43 41 37 32 28 26 23 21 19 18 18 18 17 19 19 18 16 14 12 11 9 9 8 8 9 8 8 8 7 6 8 7 7 8 7 7 9 10 13 14 10 9 8 7 7 6 5 6 6 6 6 6 8 11 16 17 11 10 12 14 19 25 21 13 14 22 22 16 14 18 18 15 14 14 18 21 23 24
64 62 48 41 42 38 42 49 41 37 40 36 31 27 24 24 22 19 18 18 17 16 17 18 18 19 18 16 14 12 10 9 7 7 7 7 7 6 6 6 7 7 8 9 7 9 11 11 14 15 12 10 8 6 6 6 5 6 6 6 6 6 6 7 13 20 15 12 15 15 17 19 16 14 17 21 22 17 13 15 17 15 13 12 15 22 24 24
66 62 52 46 42 38 48 53 45 41 38 31 26 23 21 19 19 19 18 18 18 16 17 17 16 17 16 15 15 13 11 11 10 8 7 8 8 6 6 5 5 7 8 8 9 9 11 13 15 19 18 15 15 13 9 7 7 7 7 6 6 6 5 4 8 15 16 15 16 17 21 22 17 16 20 20 18 15 14 15 14 15 16 12 13 23 26 25
67 61 51 42 35 35 41 40 37 37 33 28 26 23 22 22 21 22 24 24 23 21 23 22 21 21 18 17 21 18 13 12 10 8 7 7 6 4 6 7 6 5 6 11 13 8 10 15 14 18 21 19 19 20 15 10 8 8 8 6 5 5 5 6 7 12 21 25 19 14 21 26 19 12 14 19 18 14 14 16 13 14 17 13 16 26 27 26
73 72 59 44 35 33 35 30 28 33 34 38 42 37 35 37 33 29 30 30 27 25 26 26 27 32 30 33 39 35 27 24 20 15 13 11 10 10 14 17 13 8 11 22 21 9 9 16 15 15 19 18 20 21 16 12 9 8 8 7 7 6 5 7 8 9 18 28 25 19 20 21 19 15 13 16 17 14 16 17 16 22 25 23 29 35 29 28
80 79 62 56 57 50 44 40 37 42 47 52 55 48 44 45 40 34 32 30 28 27 28 28 30 36 38 41 46 44 40 40 36 34 33 31 29 27 26 24 19 19 26 28 21 13 13 16 16 16 16 15 18 18 13 12 10 9 9 8 7 7 5 7 9 7 10 17 21 25 26 19 15 14 14 18 18 16 20 21 16 24 33 32 34 36 31 30
76 72 54 55 67 62 54 52 49 50 51 49 47 44 42 44 44 41 37 32 29 28 33 34 33 35 37 38 45 50 51 49 46 45 45 43 41 38 35 29 23 25 30 24 15 15 20 19 15 14 14 12 11 12 10 11 11 8 8 9 8 8 7 7 8 8 10 14 14 19 30 30 21 13 12 19 20 16 21 22 14 21 35 37 36 35 31 30
67 67 54 50 64 67 59 54 51 51 49 49 51 48 42 41 41 38 35 33 32 29 33 38 35 34 38 39 45 54 56 55 54 50 46 44 43 43 43 39 29 25 27 25 20 17 20 25 19 11 13 12 9 10 9 9 11 9 7 8 7 7 8 7 8 7 8 14 12 12 23 29 24 17 12 18 24 21 23 22 14 20 35 38 37 36 32 30
70 70 68 68 75 71 59 51 51 54 52 50 54 49 41 41 42 37 31 32 36 32 29 34 38 39 43 44 48 52 49 49 52 48 43 44 46 46 46 41 34 31 29 28 26 20 18 25 22 13 16 15 9 9 9 8 10 10 8 9 7 7 8 6 8 7 7 13 12 11 18 18 16 17 14 17 24 22 23 23 16 19 31 34 35 36 33 33
70 72 81 91 90 74 63 59 57 61 60 54 53 49 46 52 52 44 35 28 32 36 31 32 41 46 48 49 50 48 42 39 42 40 37 40 43 43 42 39 36 36 35 30 28 25 21 21 19 18 24 22 12 10 11 9 10 10 10 10 8 7 8 7 7 7 8 12 13 15 20 19 18 18 14 13 18 18 22 25 21 23 29 27 28 33 35 37
69 77 84 95 96 80 71 67 59 59 60 56 57 54 47 47 44 42 45 37 29 33 33 33 41 53 62 62 53 44 37 33 34 32 30 33 36 34 35 35 32 33 35 31 28 28 24 19 18 22 28 25 16 13 13 11 13 14 12 11 10 9 8 7 8 8 7 8 10 15 20 23 26 22 13 11 13 14 20 25 23 26 30 26 22 24 28 33
Wind_Speed
23 23 23 23 22 23 25 25 25 24 24 25 25 26 25 25 25 25 26 25 25 25 26 27 27 26 26 25 24 24 24 23 23 17 13 24 29 20 19 17 11 14 17 13 15 15 13 14 16 19 14 8 6 5 6 6 4 2 3 1 3 3 4 6 6 1 8 8 6 7 7 9 12 11 10 13 13 12 11 10 12 14 15 19 24 30 30 30
23 23 23 23 22 24 26 26 26 26 26 26 26 27 26 26 26 26 27 26 26 26 26 27 27 26 25 25 23 22 22 21 20 18 23 28 28 23 20 19 15 12 18 18 17 16 13 12 14 15 9 5 6 6 6 6 5 3 2 3 3 5 6 9 11 4 5 8 8 9 10 9 11 12 10 12 13 13 10 10 15 17 18 22 26 30 29 29
24 24 24 24 25 26 27 27 27 27 27 27 27 27 27 27 27 28 28 27 27 27 27 27 26 25 24 24 21 19 17 15 11 14 19 13 12 20 19 19 17 14 19 21 19 19 17 14 16 14 8 6 6 8 9 5 4 4 4 3 5 7 7 10 12 2 3 6 9 8 10 10 9 9 8 12 15 14 11 11 14 18 20 22 22 25 28 28
24 24 24 27 28 28 28 28 28 28 28 28 28 28 28 28 28 29 29 28 28 28 27 27 25 25 23 22 20 15 11 8 5 8 7 1 10 15 16 17 17 16 20 22 18 19 20 17 16 13 9 7 7 9 9 6 4 4 5 6 6 6 8 11 9 2 2 4 8 7 9 11 9 7 9 14 13 11 13 15 17 20 22 22 21 22 25 24
25 24 25 29 30 29 29 29 29 29 29 30 30 30 30 30 29 29 29 29 29 28 27 26 25 24 22 20 17 11 6 4 1 2 3 7 12 16 17 15 14 17 20 20 17 18 20 17 14 11 8 7 8 9 8 10 6 3 8 10 7 6 8 10 6 4 4 2 5 7 8 10 9 6 10 16 11 10 14 19 21 21 21 22 21 20 21 21
26 25 26 30 31 30 30 29 30 30 30 31 31 31 31 31 31 30 30 30 30 28 26 25 25 24 21 18 12 4 0 2 5 1 7 10 14 17 16 13 12 15 18 17 16 15 15 14 12 10 7 8 10 10 9 13 10 5 8 11 9 9 8 8 7 5 7 5 4 6 7 9 8 5 10 15 12 13 19 23 24 21 20 22 22 20 19 18
26 26 29 31 31 31 31 31 31 31 32 32 32 32 32 32 32 31 31 31 30 27 25 24 24 23 19 14 5 1 2 8 17 12 9 12 14 14 13 13 13 15 17 16 13 12 12 13 14 10 9 9 10 12 10 11 14 9 9 11 12 11 9 10 8 3 6 8 7 7 7 8 8 4 6 8 9 20 24 23 24 21 21 22 20 19 19 18
27 29 32 32 32 32 32 32 32 33 33 33 33 34 34 34 33 32 32 32 29 26 24 23 23 20 15 8 1 3 4 13 22 17 16 17 14 13 13 13 15 17 18 17 15 12 11 13 14 10 9 10 10 11 11 10 13 14 13 13 13 12 11 10 6 5 6 7 8 9 6 7 9 6 3 5 17 25 24 21 23 21 20 19 18 19 18 17
29 30 33 34 34 33 32 33 34 34 34 34 35 35 35 35 34 33 33 31 29 25 23 23 21 15 8 3 2 3 8 18 20 15 19 21 15 14 15 13 16 18 17 18 18 14 11 10 13 11 9 10 11 11 12 11 8 14 17 13 13 14 11 8 10 8 8 5 6 8 7 6 8 8 2 9 22 25 23 22 22 21 20 18 17 18 17 17
29 30 33 35 35 34 34 34 35 35 35 35 36 35 36 35 34 34 33 31 27 24 21 20 17 9 3 2 3 4 11 17 13 16 20 20 15 15 15 12 16 18 14 15 16 15 12 11 11 10 10 9 10 11 12 11 6 10 14 14 16 13 10 11 12 7 6 8 8 6 7 8 8 7 4 11 21 24 24 21 20 19 19 18 16 16 15 16
28 29 34 36 36 35 35 36 36 37 36 37 37 36 36 35 35 35 32 29 26 23 19 17 13 4 2 3 2 6 11 11 9 18 18 19 17 14 14 13 16 17 13 12 14 18 16 16 12 7 7 7 8 11 12 12 10 13 12 12 16 15 13 13 10 7 5 7 11 8 7 10 8 5 6 13 20 24 24 21 19 18 16 17 16 15 13 13
28 31 36 38 37 37 37 38 38 38 38 38 38 37 36 35 35 33 31 28 25 21 16 14 8 0 3 4 8 17 17 14 11 11 14 20 19 14 13 14 17 17 15 11 12 19 21 19 15 9 6 4 7 9 9 11 12 15 13 7 9 11 13 12 10 9 7 7 13 10 6 8 7 6 10 15 18 23 24 21 19 17 14 14 14 12 12 13
29 33 38 38 38 38 39 39 39 40 40 40 39 39 38 36 34 30 29 28 24 18 13 12 5 2 3 4 12 25 25 21 21 20 18 18 16 16 12 13 17 18 17 14 13 20 23 22 16 10 8 5 6 6 7 9 10 12 12 6 5 4 5 10 10 10 10 10 15 11 4 6 7 8 14 15 17 21 21 19 18 16 14 14 13 10 12 13
31 34 37 37 38 39 40 40 41 41 41 41 40 40 39 36 33 29 28 25 19 13 9 8 2 4 4 7 15 24 26 25 24 24 22 18 17 17 16 15 16 18 20 18 17 19 22 23 16 9 8 7 6 8 9 8 7 9 10 6 3 2 3 8 10 11 11 11 16 12 4 6 6 7 15 14 16 20 18 17 17 15 15 13 13 12 12 12
33 36 38 38 39 40 41 41 41 42 42 42 42 41 39 35 32 28 25 20 13 9 7 4 5 6 4 10 17 24 24 24 26 30 26 22 21 15 17 19 17 17 17 17 17 17 17 17 12 7 6 7 7 8 7 5 5 7 7 5 1 1 6 8 11 14 11 11 17 13 4 6 5 5 15 14 14 19 17 16 16 15 15 14 13 13 13 11
34 38 40 40 41 41 42 42 42 43 42 43 43 40 36 34 31 26 19 13 8 6 6 3 9 9 4 6 12 17 13 15 21 30 31 27 23 15 16 20 17 17 16 14 15 14 15 12 7 6 6 6 7 5 4 4 5 6 5 4 3 5 8 7 11 15 12 11 14 11 4 5 4 4 11 15 14 18 16 16 17 15 15 14 12 13 13 10
35 39 42 41 41 42 43 43 43 42 43 44 42 37 35 31 23 16 10 6 3 5 8 3 5 7 7 9 10 12 10 14 16 21 27 27 22 18 15 13 12 14 14 15 15 12 10 8 4 5 6 6 5 5 4 4 5 5 4 5 6 8 8 5 9 13 12 13 13 11 6 7 8 7 11 15 15 16 15 16 17 15 14 13 12 13 12 11
38 41 43 42 41 43 43 43 42 42 44 43 38 37 33 22 9 2 3 6 5 3 6 7 4 3 7 9 7 9 12 14 15 17 22 25 24 22 16 10 8 11 11 10 12 10 7 5 4 4 5 6 6 6 6 7 7 7 6 5 8 9 8 6 8 10 12 15 13 12 8 8 11 11 12 15 15 14 14 15 15 14 14 13 12 13 12 12
39 41 42 42 42 43 43 43 41 41 44 40 35 32 20 7 4 5 6 7 5 1 4 3 6 4 5 6 9 13 13 15 15 15 17 21 21 20 17 13 11 11 9 6 8 9 6 4 5 6 6 8 9 9 9 9 11 11 11 8 7 7 7 9 7 10 14 12 11 12 9 8 10 11 12 15 14 13 13 14 14 13 14 13 12 12 13 13
40 42 42 43 42 43 43 43 40 40 42 38 33 25 10 3 4 1 3 5 6 8 9 7 10 10 11 11 13 17 15 15 14 11 14 17 16 14 12 11 10 9 8 7 8 9 7 5 8 9 8 9 11 12 11 12 13 14 13 9 8 7 8 11 9 12 15 10 8 11 10 9 9 8 11 15 14 12 12 13 13 13 14 14 13 13 14 14
41 41 41 44 43 43 44 42 40 38 34 30 23 11 5 6 5 4 6 7 11 12 16 18 15 15 17 16 19 20 13 8 10 9 15 18 14 10 7 7 8 7 8 9 8 8 8 8 10 10 11 11 11 13 13 14 15 14 12 9 8 7 8 10 7 11 15 8 7 11 9 8 10 7 9 15 14 12 13 13 13 15 15 14 14 15 15 13
41 39 42 44 42 44 43 41 39 32 23 19 13 4 6 9 8 10 11 9 12 13 17 20 18 19 20 21 31 25 12 9 9 9 15 18 12 8 8 8 7 6 8 10 7 7 9 10 11 12 12 12 12 13 15 17 15 12 10 8 8 8 7 10 7 12 14 7 6 11 9 7 10 9 8 15 14 11 13 13 13 15 16 15 15 14 14 13
41 40 42 41 43 45 42 42 35 21 18 19 14 11 13 14 14 16 11 8 13 12 15 19 19 19 18 20 28 25 13 11 10 10 15 16 9 8 9 9 9 8 9 11 9 7 8 8 11 13 12 14 15 14 15 14 12 11 9 7 8 9 8 8 5 10 13 8 8 12 8 5 9 8 7 11 12 11 14 15 14 15 15 16 17 15 15 16
41 41 41 41 45 43 42 42 25 15 26 27 18 15 17 18 18 19 10 5 11 9 13 20 17 15 20 20 18 17 13 11 10 10 16 15 9 8 8 9 10 9 9 12 14 12 9 8 13 15 14 15 15 15 14 11 9 12 13 10 8 11 12 10 7 4 9 9 10 12 7 4 8 10 7 7 9 10 13 14 13 13 15 16 17 16 16 17
41 42 41 43 43 44 45 32 13 22 37 25 15 20 24 22 21 21 10 3 7 6 10 16 11 12 22 21 15 13 10 11 12 11 13 16 12 7 7 7 7 10 12 14 14 12 12 9 12 17 16 15 14 13 14 11 7 10 15 16 13 12 13 12 11 6 5 5 6 10 5 4 7 12 11 7 7 9 10 12 12 12 13 14 15 15 16 16
42 41 42 42 42 47 40 15 13 34 31 12 16 27 26 23 26 23 9 2 6 6 7 9 7 9 16 16 12 11 7 11 14 14 13 17 17 9 6 6 4 9 12 12 9 6 10 12 12 15 17 17 15 12 14 13 9 7 11 16 17 17 15 13 13 8 4 5 7 9 5 3 6 10 12 11 11 10 9 10 12 11 11 13 14 14 15 15
41 40 42 41 41 44 27 11 24 30 14 10 21 28 25 24 27 21 5 1 5 5 6 5 5 8 12 13 15 13 6 6 11 15 17 17 18 11 8 8 6 8 8 7 7 5 9 15 15 15 15 15 14 11 12 14 10 7 9 13 16 18 18 17 14 9 3 4 8 11 7 4 4 7 10 12 13 13 10 10 11 11 12 13 14 15 16 16
40 39 41 40 42 40 21 18 25 16 9 17 25 27 26 25 24 14 1 1 4 2 5 3 3 5 7 12 18 13 6 6 10 14 19 19 16 11 10 12 9 10 10 7 7 7 9 14 16 17 14 11 10 11 12 14 11 9 10 12 14 16 18 16 12 8 5 3 5 8 8 5 4 6 7 10 13 14 14 13 12 12 13 14 14 14 16 16
40 40 40 41 43 37 19 16 20 17 19 24 26 27 25 23 16 4 1 3 4 1 2 3 2 3 6 12 18 15 9 6 6 10 17 19 17 11 9 12 11 10 13 12 9 8 9 11 14 16 13 9 9 12 14 14 11 9 12 12 11 13 14 13 11 7 6 5 5 9 11 6 4 5 7 8 10 12 13 13 11 11 12 13 13 14 15 15
41 41 41 42 42 35 24 22 24 20 21 23 24 26 22 16 6 2 4 4 3 2 2 2 1 5 8 12 14 15 13 10 6 8 14 15 16 14 8 9 10 9 9 12 12 11 10 10 11 12 11 10 9 11 14 16 13 9 11 12 10 10 9 8 7 5 6 6 5 11 16 11 5 5 8 8 9 11 11 11 10 10 11 12 12 14 14 14
42 42 42 42 41 34 20 18 21 16 17 20 21 21 15 6 2 3 4 3 4 2 4 2 4 8 12 13 12 13 15 12 7 7 10 10 13 13 8 7 8 7 7 8 10 13 14 12 9 8 9 10 10 10 12 14 14 11 8 8 7 6 5 5 4 5 7 7 5 8 12 11 7 6 7 8 10 12 12 12 14 14 13 13 13 13 14 13
42 43 44 40 37 29 16 18 24 22 18 19 17 12 5 1 4 6 4 1 4 6 6 6 9 10 13 14 11 12 14 11 10 9 9 10 10 11 12 9 7 7 8 7 8 10 12 13 11 9 9 11 10 8 9 11 11 10 8 6 6 4 4 6 5 4 6 7 7 7 8 8 6 6 11 12 12 13 13 13 17 19 17 15 14 14 13 12
44 45 43 36 30 27 26 28 28 24 18 16 12 5 1 4 6 7 6 4 4 3 1 4 7 8 13 12 9 12 13 10 11 11 10 13 10 11 15 14 10 8 7 7 7 7 7 10 13 12 8 11 13 7 5 8 8 9 8 7 7 5 5 7 5 5 5 5 8 10 8 7 5 5 14 16 15 16 16 15 17 19 20 17 15 15 15 14
45 42 40 37 31 28 28 26 24 21 17 12 7 2 5 8 3 5 8 8 9 13 12 9 8 8 11 12 10 10 10 10 13 12 11 12 10 10 13 16 16 11 5 6 7 7 8 7 11 13 7 9 15 11 5 6 8 10 9 7 7 7 6 6 5 4 5 4 7 11 8 5 5 7 14 17 15 15 15 15 16 17 19 18 15 16 16 15
42 40 40 38 32 28 22 19 20 19 14 8 3 4 9 8 1 2 5 6 8 11 14 17 15 12 10 10 13 14 10 9 13 13 11 11 11 10 11 14 18 14 8 7 6 7 11 8 8 14 11 9 13 12 9 7 7 8 8 8 9 8 5 4 4 4 4 4 5 7 6 4 5 7 13 15 15 14 13 14 14 14 18 19 16 15 16 15
42 40 37 31 26 24 20 18 18 17 13 5 4 7 7 5 3 3 4 5 7 8 13 17 13 9 9 6 9 15 13 10 12 12 9 11 12 12 12 12 16 18 12 7 4 6 8 7 8 14 15 15 12 12 14 11 6 4 7 10 9 7 5 3 4 4 4 5 4 4 4 3 4 5 8 13 15 15 13 13 13 11 15 20 17 15 15 14
40 33 29 30 27 22 18 17 15 17 11 4 8 9 5 5 8 8 8 11 13 13 12 10 8 7 8 6 7 12 14 10 12 11 8 10 11 13 15 11 15 21 17 10 5 5 6 5 8 14 16 18 14 11 15 15 9 4 6 7 2 2 4 3 4 4 4 6 4 5 7 5 5 5 6 12 15 16 15 14 14 12 13 18 17 16 16 15
34 24 22 28 25 20 13 13 13 14 8 5 10 11 8 7 10 11 13 15 16 14 10 6 6 8 8 7 7 9 12 10 10 10 8 9 8 13 17 13 14 20 21 17 9 5 6 4 7 13 15 16 15 11 12 14 13 9 5 3 4 4 5 4 4 4 5 7 4 5 8 6 6 5 6 12 13 14 15 15 15 14 12 15 17 18 19 17
26 14 12 17 16 25 19 7 12 10 5 8 10 8 7 9 12 14 15 16 15 12 10 8 6 8 11 10 10 10 10 10 11 10 8 8 7 14 18 13 12 18 21 21 12 6 6 4 5 11 13 14 12 10 9 8 11 11 8 5 5 5 5 6 6 3 4 5 4 5 7 5 6 5 6 11 12 14 14 14 15 16 14 15 15 16 17 17
15 6 9 14 14 30 34 16 7 7 5 10 10 7 8 10 11 13 15 15 12 9 9 10 9 10 12 13 13 11 10 10 10 11 8 8 9 13 18 15 13 15 20 23 17 8 7 6 4 6 8 11 10 9 10 9 9 10 9 9 8 4 4 6 7 6 5 4 4 5 5 5 5 5 8 10 12 15 16 15 15 15 15 17 17 17 16 16
10 4 9 18 23 32 31 15 5 6 6 9 10 10 12 11 12 14 16 17 14 10 11 13 13 12 11 13 14 11 10 12 11 9 9 11 10 8 13 16 15 14 15 18 17 11 6 6 5 5 6 8 8 11 14 14 12 11 9 11 10 6 4 5 7 7 7 5 5 5 4 6 5 5 8 10 11 14 15 14 13 12 14 16 16 19 19 18
8 4 12 27 36 33 18 6 4 5 6 8 10 12 12 11 12 14 15 16 15 12 12 13 14 14 12 12 14 13 10 10 12 10 6 9 12 9 10 15 18 18 14 11 14 14 8 4 5 6 7 8 8 12 19 19 16 13 11 11 10 8 6 5 5 5 6 6 6 5 5 6 6 6 7 7 9 12 14 13 12 12 14 14 13 17 19 19
6 8 20 35 36 23 9 5 6 6 7 10 13 15 14 12 12 12 13 14 13 11 11 11 13 13 12 11 13 14 12 10 13 13 12 10 9 10 13 15 15 17 15 10 10 14 10 6 6 6 6 9 11 9 17 20 17 12 11 11 10 9 8 7 5 3 4 6 5 5 6 7 5 6 7 7 7 9 12 15 14 13 13 13 12 14 16 16
6 8 16 28 28 14 6 5 5 6 8 11 13 15 14 13 13 13 14 13 11 10 10 11 13 13 13 13 14 15 14 11 12 13 13 11 9 9 12 17 17 14 11 9 7 9 9 7 6 5 5 7 9 7 10 17 15 9 8 11 13 14 12 9 7 3 4 7 8 5 5 6 6 6 8 7 6 7 8 13 14 11 11 13 12 12 16 17
7 6 7 16 20 10 5 6 6 7 10 12 15 16 14 11 11 12 13 13 12 10 9 10 13 14 13 12 12 16 15 12 12 12 12 11 11 12 12 10 14 15 11 13 14 10 8 9 8 8 8 9 9 7 5 9 11 8 8 12 16 18 16 11 6 5 6 8 10 8 6 5 6 11 12 9 6 5 5 8 12 10 11 13 10 11 17 17
5 6 5 8 10 6 4 6 7 7 8 9 10 11 12 11 10 13 15 12 11 11 11 9 12 15 13 14 15 13 12 13 12 10 10 11 10 9 16 21 16 15 18 17 17 10 6 8 11 13 12 9 8 7 4 4 8 12 14 15 14 16 18 12 6 7 6 4 6 9 9 8 6 8 13 10 7 7 5 6 10 8 7 9 8 9 14 15
3 4 6 5 5 6 6 7 7 7 8 9 6 7 13 14 11 13 12 9 9 12 11 9 11 13 13 16 15 12 14 16 14 12 12 13 14 15 19 19 12 18 28 19 15 11 5 7 13 18 17 13 9 7 8 9 9 13 17 17 16 15 16 14 11 11 7 4 6 8 7 10 11 10 11 9 7 8 7 7 9 7 7 8 8 11 15 15
4 4 6 7 6 6 7 9 11 12 13 12 8 8 14 14 12 11 9 8 10 10 8 7 9 12 14 16 12 11 15 14 10 13 16 15 16 18 19 17 11 17 26 17 9 8 4 6 11 16 18 19 16 12 12 13 12 12 16 18 18 17 17 16 14 13 9 6 9 8 5 7 10 11 11 8 7 8 8 9 9 8 8 8 8 13 17 17
5 5 6 7 6 7 10 12 14 15 15 13 8 8 13 14 13 11 9 9 10 7 5 10 11 12 14 14 10 8 11 11 10 12 14 16 16 13 13 15 12 14 18 16 10 5 3 5 8 12 14 18 19 18 17 16 14 12 13 16 18 19 20 18 14 11 11 10 10 10 10 9 8 8 9 7 7 6 4 4 5 7 11 12 9 11 13 14
5 4 4 5 5 7 10 11 12 11 11 10 8 8 10 13 15 13 9 8 10 8 5 9 13 13 12 12 11 9 10 11 13 14 14 15 14 10 7 8 10 15 18 14 11 10 7 5 6 7 7 11 17 20 20 19 16 14 12 13 17 19 20 19 16 12 10 9 10 10 10 11 8 7 7 6 5 4 3 4 1 2 9 14 13 11 13 14
9 5 3 3 5 7 7 8 8 8 7 7 7 7 8 11 14 15 12 9 10 11 8 8 11 11 9 10 10 12 14 14 14 16 16 14 12 10 8 8 11 16 16 12 10 12 10 4 5 4 2 5 10 17 21 20 17 17 18 16 16 16 14 13 14 14 12 10 8 7 7 8 8 7 7 6 4 5 6 6 4 3 6 11 12 12 13 15
10 4 0 1 5 6 6 7 8 8 7 5 6 9 10 11 13 14 11 7 8 11 11 9 8 7 7 9 10 12 14 16 16 16 15 15 15 15 14 14 16 14 12 12 10 10 10 6 4 5 3 3 4 7 13 15 14 16 18 16 11 9 11 11 11 13 16 13 7 6 7 7 5 6 6 8 7 7 7 7 6 6 7 9 11 11 12 13
Wind_Direction
355 353 353 352 350 354 357 356 355 354 351 348 345 343 340 339 337 335 334 331 330 329 327 327 325 325 325 327 329 328 325 320 314 298 256 263 269 261 249 262 267 213 198 197 189 178 187 205 213 212 201 195 221 222 211 213 219 175 93 211 241 256 267 268 293 39 131 131 152 153 126 111 112 120 121 126 135 139 147 144 136 131 128 132 136 142 144 145
355 352 352 351 351 356 357 356 354 351 349 345 343 341 339 338 336 334 332 330 330 327 327 327 324 324 324 327 329 330 329 319 307 279 265 275 272 257 242 247 256 211 192 193 193 189 188 199 205 211 209 206 220 215 208 197 197 183 166 222 234 243 241 255 279 312 119 142 154 148 139 131 128 141 149 145 142 139 141 139 132 127 125 129 138 145 146 148
354 352 351 352 354 355 354 353 351 348 346 343 341 339 338 336 335 333 331 330 328 326 326 326 324 324 323 325 328 333 330 317 298 269 278 289 249 240 234 232 232 208 195 194 196 196 195 200 200 204 208 221 228 215 210 184 182 192 193 235 236 247 254 259 264 287 109 151 142 147 141 129 141 160 164 150 143 142 134 128 130 129 132 138 144 147 148 152
352 350 351 355 355 353 351 350 348 346 343 342 340 339 337 335 334 332 331 329 327 325 325 325 325 322 323 325 326 335 331 305 264 252 286 119 178 199 205 214 216 212 206 199 203 208 205 203 202 205 207 220 232 231 217 169 168 186 196 230 226 246 264 265 266 131 153 167 133 143 129 129 163 177 155 149 146 146 139 136 138 138 141 144 145 147 150 153
351 348 350 353 353 351 349 347 345 343 342 341 340 338 336 334 333 331 330 328 326 325 324 325 325 322 324 324 323 339 342 307 295 179 125 126 165 175 184 201 208 213 209 201 216 228 220 211 203 205 212 229 229 233 216 179 179 198 213 231 226 239 262 266 261 166 160 132 126 147 139 141 160 169 157 158 164 159 148 145 143 143 147 147 147 148 152 156
348 347 350 351 351 350 347 345 344 342 341 340 339 337 335 334 332 329 328 327 325 323 324 325 323 322 322 323 326 336 330 274 313 290 145 143 161 173 183 190 198 206 202 202 219 235 233 220 208 203 210 228 230 234 220 183 181 212 222 229 231 233 254 272 256 194 147 147 170 148 141 141 144 177 172 173 183 150 140 144 143 145 149 149 148 149 156 158
347 349 351 350 349 347 345 344 343 342 340 338 337 335 334 332 330 329 327 325 324 322 324 324 320 322 321 328 341 232 194 252 273 265 200 178 172 181 189 185 191 191 190 199 214 228 232 222 213 210 213 220 230 239 241 196 181 205 223 213 221 221 228 255 253 166 141 176 168 121 129 150 150 175 184 181 156 130 134 142 141 144 149 151 153 153 159 159
347 349 350 349 347 345 344 343 342 340 338 336 335 334 332 331 329 327 326 324 322 320 323 321 318 322 326 339 325 260 245 248 266 263 225 207 193 193 192 186 190 183 186 200 207 217 228 227 216 211 223 228 234 235 243 229 188 201 219 202 208 216 215 250 261 155 172 199 152 130 146 173 158 154 209 128 116 125 135 140 140 145 151 155 159 157 159 162
345 346 347 346 345 344 343 341 340 338 336 335 333 332 330 329 328 326 325 323 319 320 322 317 316 322 335 337 278 279 247 255 270 255 216 204 199 195 188 189 190 182 190 206 210 218 224 229 219 212 227 233 240 241 236 237 203 205 216 195 196 210 197 221 250 202 179 182 147 148 154 167 151 136 159 114 118 129 135 138 144 147 151 158 163 161 162 165
342 343 344 345 344 343 342 340 339 336 335 333 331 329 327 326 326 324 324 321 317 318 319 313 312 318 335 261 253 247 262 272 254 211 200 192 190 189 190 199 193 184 197 209 212 221 225 233 224 212 233 242 245 251 246 241 240 238 225 196 195 200 180 201 234 221 176 164 157 166 152 140 137 135 145 122 123 129 132 140 146 147 154 160 166 165 165 169
341 341 343 344 343 342 341 339 338 335 333 331 329 326 324 324 323 323 323 319 314 316 316 307 305 310 242 242 234 231 266 285 197 183 189 181 177 185 198 208 199 190 202 213 215 222 230 242 242 224 225 244 260 265 269 266 277 281 258 211 202 195 187 195 202 200 203 172 156 166 156 134 139 170 163 133 128 131 135 144 148 151 156 161 170 167 164 176
340 340 343 344 343 342 340 339 337 335 333 330 328 324 322 321 320 321 320 315 312 313 310 297 296 263 256 249 228 237 258 285 259 234 211 184 174 184 202 209 202 196 206 217 216 223 235 247 254 256 232 219 252 265 279 275 275 281 276 243 219 207 196 189 180 184 194 176 158 156 155 147 166 190 158 139 134 136 139 147 151 156 158 162 172 165 166 182
340 340 342 343 343 342 340 338 336 334 332 330 327 323 320 319 318 319 318 312 310 311 298 284 273 173 262 242 238 252 267 282 283 282 258 219 197 190 203 219 208 200 211 226 221 219 231 245 255 266 265 248 244 271 296 283 276 281 283 269 249 262 215 188 179 184 186 178 159 148 152 177 201 188 153 142 139 139 143 150 155 158 160 165 170 166 175 186
339 339 340 342 342 341 339 337 335 333 332 329 326 322 319 317 316 316 312 306 307 306 279 272 218 157 238 254 265 274 273 268 268 274 268 253 235 203 194 219 225 211 208 222 233 229 229 236 246 260 268 267 270 295 299 291 289 292 295 279 233 333 271 206 185 183 191 180 155 143 151 187 211 168 144 146 145 142 145 152 156 160 162 166 167 167 178 191
339 340 340 342 342 341 339 336 335 333 331 330 325 320 317 316 315 312 304 298 300 282 257 262 185 180 272 266 275 289 278 258 251 250 246 246 246 218 187 199 224 229 216 219 233 246 248 237 232 240 254 260 268 284 289 299 301 288 288 285 221 199 263 234 189 185 191 173 151 143 154 180 206 167 147 154 150 143 149 155 158 163 164 164 165 166 177 193
340 341 342 343 342 341 339 336 334 332 332 329 324 319 316 316 313 305 294 284 284 239 201 192 192 197 288 270 278 297 272 233 236 236 232 235 242 230 198 193 204 224 229 234 238 247 258 252 230 224 231 242 246 248 271 293 283 271 252 258 241 204 245 240 184 189 186 160 148 143 149 165 189 210 160 159 155 147 153 157 160 164 164 163 162 166 177 187
341 342 344 343 341 341 338 335 333 332 332 328 324 320 316 317 310 298 285 245 218 180 178 221 207 191 257 268 296 302 246 219 225 221 221 225 232 235 217 195 194 207 215 227 235 236 240 246 240 222 215 221 223 207 231 249 248 268 252 249 251 224 238 230 181 190 172 149 154 151 152 162 175 203 171 162 162 154 155 159 162 165 164 165 162 169 176 180
344 343 343 343 341 340 338 335 333 332 333 328 323 321 318 321 326 356 96 139 132 163 215 265 270 197 252 251 256 260 243 234 214 203 214 211 217 230 219 203 202 197 200 214 223 224 219 221 223 229 217 209 214 203 203 219 225 242 240 237 246 240 247 229 187 183 161 150 161 161 166 171 170 188 177 166 165 159 160 161 163 165 164 166 163 169 175 180
344 344 344 343 340 339 337 334 332 332 334 328 324 330 327 336 44 101 130 136 124 204 249 232 197 194 290 263 234 247 254 239 210 198 208 196 200 218 212 210 207 190 196 200 199 204 199 204 217 226 224 206 209 213 209 215 223 235 240 233 228 236 253 246 214 171 158 158 167 161 172 179 167 184 179 167 165 162 164 163 164 166 164 168 166 168 173 179
344 343 343 343 340 339 336 333 331 333 335 329 328 338 342 359 23 89 183 199 213 245 265 251 210 225 276 284 275 280 273 233 205 196 197 181 184 205 209 214 202 188 199 195 191 196 191 209 219 217 222 216 210 216 222 225 230 239 248 249 238 231 236 244 233 176 159 160 172 160 169 180 166 185 179 162 164 164 166 168 169 165 163 170 170 169 174 179
342 341 343 342 340 338 335 333 332 332 336 330 327 332 327 351 3 332 317 267 241 240 253 255 238 239 252 263 273 283 295 243 197 194 192 177 177 189 192 208 203 192 198 203 200 191 198 217 220 216 222 229 221 214 221 231 235 240 250 261 261 252 246 252 234 168 159 162 175 160 163 178 168 187 181 159 164 170 170 174 173 167 165 170 174 173 175 179
340 340 341 341 340 338 334 333 332 335 344 342 335 297 283 327 343 332 328 291 265 244 246 254 248 248 243 247 259 264 288 274 226 204 185 173 180 182 164 188 213 206 190 205 212 191 207 222 217 214 216 228 234 220 216 226 233 239 247 256 265 269 273 272 238 166 164 167 169 165 168 178 169 178 176 162 168 175 173 176 175 171 167 169 176 175 172 175
340 340 341 342 341 338 334 333 332 340 353 340 314 279 288 317 340 340 328 292 285 253 234 241 235 242 238 234 249 250 252 256 241 217 186 174 187 186 173 185 201 215 198 201 215 207 210 213 209 216 215 217 230 230 219 220 227 237 242 242 252 261 269 277 247 172 169 165 157 166 172 175 166 169 181 176 175 174 176 181 178 173 171 172 176 176 171 173
341 341 342 342 341 339 334 333 334 350 344 329 304 302 324 339 349 346 333 274 287 263 223 227 219 227 229 217 222 225 230 239 240 225 188 179 195 190 194 197 189 211 216 204 212 225 233 204 194 213 222 216 221 229 225 219 219 228 236 240 242 248 251 260 270 210 168 166 158 157 167 193 169 168 189 198 181 174 177 182 182 177 174 173 175 176 174 173
340 341 341 341 343 339 334 333 343 345 335 326 326 343 349 348 346 343 337 256 278 266 215 217 214 224 222 210 199 198 213 229 233 235 196 183 196 195 201 209 197 208 214 214 213 222 240 224 195 204 216 221 221 221 222 221 223 223 227 235 243 251 255 260 273 269 156 174 178 150 162 239 184 172 187 197 185 182 181 182 186 182 173 172 174 177 177 176
339 340 340 341 342 340 339 340 337 336 329 319 343 346 343 340 338 334 326 254 279 258 196 186 187 204 197 190 189 180 204 231 222 231 224 194 193 204 208 201 214 215 207 217 225 217 224 228 222 211 205 213 222 223 218 216 226 231 218 225 238 252 262 264 267 262 162 185 203 169 160 223 194 182 186 189 190 192 192 190 188 182 175 174 173 177 179 179
338 338 338 339 339 341 342 309 317 329 319 307 334 337 334 333 330 326 317 217 274 222 172 157 162 177 171 168 172 167 194 218 195 216 226 199 186 199 217 201 202 220 208 207 223 218 204 212 226 227 212 207 214 222 217 213 223 236 219 215 225 239 252 258 262 262 215 177 194 186 160 144 199 205 189 182 186 195 202 203 195 183 180 179 174 176 180 181
337 336 336 336 334 336 328 294 308 313 290 313 326 329 329 326 322 319 312 266 292 141 141 169 159 168 170 159 167 183 199 154 163 204 210 200 190 185 211 218 209 210 213 218 221 215 209 210 215 223 226 214 206 210 211 216 224 231 230 224 220 226 239 249 257 266 254 218 208 194 161 146 219 220 192 177 179 193 203 204 199 186 182 182 178 174 177 183
336 334 333 333 330 331 330 300 287 280 298 317 322 323 322 317 315 313 196 270 285 339 138 170 149 175 173 158 175 204 216 184 186 186 188 201 205 199 211 220 226 223 214 224 236 224 221 219 212 216 228 225 206 200 203 215 223 224 232 237 233 228 230 237 243 256 257 247 233 198 173 172 230 205 186 184 184 193 200 202 196 186 182 183 183 180 177 180
335 331 330 332 327 325 329 304 281 282 304 312 316 321 318 308 302 181 228 249 259 271 125 109 161 185 179 168 183 203 208 224 235 165 174 194 199 207 215 203 225 250 229 223 234 238 241 236 221 216 221 223 216 202 200 211 219 220 228 238 246 241 235 235 228 225 249 252 224 199 187 183 214 211 185 187 190 181 182 192 194 190 189 185 185 187 183 180
332 329 327 327 320 316 316 294 290 304 311 314 323 322 312 295 197 215 223 223 276 237 139 169 191 174 184 186 187 195 201 220 229 184 182 186 187 197 206 195 205 238 248 235 229 232 240 243 240 229 214 212 221 216 202 202 211 217 220 227 241 252 252 254 241 207 229 243 217 209 205 194 207 221 193 185 182 173 172 183 189 194 198 195 191 190 188 184
330 328 324 321 316 309 282 270 294 305 308 320 324 313 300 227 219 233 228 309 262 198 165 197 192 177 193 200 194 188 194 210 219 211 186 182 194 192 198 205 184 196 226 234 228 225 229 235 242 248 226 211 217 220 203 198 205 212 212 211 217 234 232 233 243 217 222 238 211 213 234 222 213 200 186 183 178 176 180 183 188 193 196 197 195 192 188 184
328 327 322 318 317 303 280 281 294 298 308 318 308 289 237 247 228 202 217 260 267 281 323 216 204 194 194 203 209 192 193 203 210 220 197 184 200 197 199 208 194 195 213 215 226 230 226 227 230 241 233 209 215 216 190 192 200 207 208 201 199 208 217 218 231 228 230 247 218 216 234 231 234 205 183 184 184 184 188 188 189 192 193 195 193 190 189 185
327 326 322 317 314 303 289 287 285 280 289 295 284 255 219 238 227 172 206 234 276 305 309 296 291 264 215 205 210 200 200 202 201 217 208 186 198 201 196 205 207 209 210 210 220 219 227 227 214 224 223 193 207 214 199 189 199 210 208 204 208 206 210 209 206 213 226 240 223 220 222 200 219 214 184 183 188 188 190 191 191 193 192 194 192 188 188 188
327 327 324 316 308 302 293 282 275 263 255 258 263 239 221 225 250 203 224 230 250 278 295 299 300 283 249 214 204 205 210 208 199 212 215 192 199 203 189 197 207 208 204 208 213 209 228 237 200 211 223 207 199 200 209 219 214 208 197 210 222 207 203 214 206 213 224 236 226 219 215 181 199 206 182 182 188 184 184 188 194 196 191 192 193 188 187 189
329 330 325 311 301 297 281 268 262 238 225 240 238 233 230 238 265 265 289 282 267 298 318 311 299 276 263 238 210 205 205 210 200 204 217 201 200 207 200 193 197 205 209 202 204 208 221 234 202 201 216 222 206 185 199 219 220 183 195 219 224 198 204 234 237 247 248 243 232 212 232 218 214 228 192 184 188 187 186 187 195 198 184 185 190 189 188 187
329 328 316 299 301 303 278 263 245 211 206 236 229 238 264 270 268 275 295 299 304 321 328 317 308 296 272 252 234 206 194 201 203 201 207 203 204 204 205 203 191 201 212 211 225 227 216 236 214 201 207 217 217 198 201 214 214 188 199 211 202 204 227 223 226 238 236 241 230 210 237 224 200 243 211 187 187 189 193 193 200 201 179 178 184 185 186 184
320 313 296 288 307 329 302 256 226 199 196 240 243 255 273 268 272 283 296 303 310 317 318 301 297 307 295 277 268 230 199 190 198 209 207 207 211 196 198 210 197 196 206 212 227 232 217 249 230 212 206 202 210 214 208 211 214 219 231 184 157 209 223 208 217 211 209 235 246 230 242 220 190 217 201 187 181 179 187 193 203 206 181 173 179 181 182 182
314 307 287 283 325 352 343 274 215 205 208 236 245 259 266 267 271 275 285 291 294 299 295 282 274 287 293 292 291 271 240 214 200 207 214 206 201 192 193 202 201 195 196 205 219 225 214 242 245 227 209 185 192 214 208 198 204 219 246 234 205 208 200 200 222 217 197 220 232 234 246 233 208 206 188 186 177 174 185 190 201 206 188 174 175 178 181 181
318 318 281 281 331 349 344 330 240 214 228 244 249 262 268 273 274 270 274 276 279 282 278 281 281 279 286 292 296 293 284 269 226 205 213 206 193 193 192 193 203 200 191 196 210 220 216 227 255 255 220 188 188 201 193 183 188 203 221 226 227 224 189 192 210 215 204 198 201 217 236 248 232 198 191 199 188 185 191 189 194 199 186 178 174 174 182 185
323 315 269 289 324 340 339 334 262 222 241 249 252 263 268 273 277 276 279 279 279 280 284 287 281 276 283 288 293 298 299 298 276 235 213 205 203 202 193 191 197 203 197 196 201 206 213 217 234 267 247 215 199 187 183 184 189 194 206 219 224 220 200 199 211 215 211 208 209 213 240 257 245 205 199 204 198 198 195 185 188 188 179 182 181 176 180 184
304 278 274 293 312 325 329 312 272 261 248 249 255 261 262 263 264 267 275 279 277 276 280 282 278 279 280 274 283 288 281 291 293 280 258 224 214 209 200 194 192 196 204 207 198 196 201 210 220 243 255 254 230 190 181 184 191 196 203 214 221 218 208 208 216 211 210 220 216 217 254 261 247 232 220 207 200 202 191 174 179 188 184 185 186 182 183 185
285 287 289 292 299 308 310 280 273 260 249 256 259 262 265 269 272 274 276 276 275 275 272 272 272 275 278 277 281 283 278 278 280 279 286 274 237 215 212 207 199 196 198 210 200 185 189 207 213 230 259 274 269 222 184 181 188 199 204 204 213 221 218 222 226 194 196 214 195 195 238 245 241 249 247 225 198 185 180 176 179 187 191 194 189 181 182 186
298 291 288 292 293 286 270 273 265 258 266 268 267 269 270 270 274 276 276 276 279 278 273 275 278 272 271 276 276 275 276 276 275 279 284 287 297 290 248 218 215 211 195 197 196 178 186 198 190 198 229 251 266 251 194 184 188 200 203 195 203 214 217 228 235 206 203 216 197 189 234 235 215 228 254 251 205 168 173 183 184 179 184 199 198 177 176 185
303 287 273 297 299 284 248 257 260 264 272 273 274 276 273 271 281 292 300 301 298 303 301 296 308 305 288 291 297 286 278 272 272 277 279 280 291 303 305 279 247 239 220 198 186 181 192 189 182 196 207 213 227 233 202 183 184 197 205 196 198 206 212 221 225 213 224 226 211 207 234 248 209 201 224 244 221 197 190 186 193 193 187 196 192 168 174 182
305 295 289 305 308 304 292 288 284 278 283 290 292 295 300 306 313 318 320 312 306 323 326 319 338 343 337 347 344 317 305 310 303 294 293 295 293 304 335 339 320 296 283 242 201 186 197 187 188 201 204 208 222 232 239 204 186 191 201 204 200 202 208 211 216 223 217 205 223 224 223 245 251 212 218 227 209 210 222 184 183 185 180 184 170 155 172 178
280 283 297 318 325 317 314 318 322 324 322 319 315 309 308 310 312 311 308 305 316 335 334 330 353 360 355 355 345 321 329 340 341 344 339 326 328 333 336 335 333 331 321 288 216 191 205 198 192 199 206 211 220 238 244 240 223 196 191 200 207 207 209 208 214 226 211 177 245 248 215 227 249 246 237 235 211 206 210 181 169 163 161 166 155 156 168 173
275 275 296 309 306 299 305 316 320 320 315 309 305 299 296 294 297 300 303 307 317 333 332 316 338 356 353 349 339 324 335 342 344 352 351 340 337 338 333 328 338 354 344 319 242 192 181 199 194 195 205 213 221 237 239 240 246 219 191 193 202 209 216 219 219 219 208 206 239 239 201 210 239 247 244 237 224 219 208 188 175 152 136 137 144 159 167 170
281 277 289 298 291 291 300 303 304 305 304 304 310 301 291 287 284 286 294 301 302 315 309 291 308 342 347 342 341 333 333 335 335 342 343 334 331 333 326 322 338 2 353 331 299 266 187 183 194 196 202 207 215 231 241 243 249 240 209 194 196 205 214 223 231 225 213 220 233 228 220 223 231 243 242 221 205 214 202 173 169 137 129 134 142 153 161 166
267 277 298 309 299 292 295 296 298 300 300 300 295 289 296 301 297 292 287 289 294 297 291 291 306 327 338 338 337 323 315 323 324 324 326 323 322 328 322 315 333 339 333 326 317 297 261 200 179 191 201 203 206 217 233 244 251 256 244 211 200 204 208 212 224 233 231 231 231 224 229 237 233 232 244 230 189 166 115 113 154 145 139 144 148 154 161 165
263 278 316 318 298 293 297 299 298 293 291 293 294 306 321 317 307 302 295 290 298 301 305 309 309 317 328 324 315 311 314 317 312 309 311 308 301 298 293 294 313 318 314 311 315 306 288 230 153 134 165 219 212 208 217 230 248 261 258 239 214 204 206 208 209 214 224 232 234 226 224 241 241 227 239 249 209 169 156 153 166 186 168 161 159 159 164 169
280 297 12 261 282 290 291 288 286 282 281 284 293 305 310 304 303 308 307 300 304 308 315 319 307 302 310 303 298 305 309 308 305 300 295 290 286 283 277 279 285 288 291 297 298 299 296 274 179 142 158 221 246 227 216 216 230 245 247 246 237 211 209 216 206 202 209 214 229 235 219 223 219 192 215 250 246 210 189 179 180 185 192 196 186 171 168 175